TimeCST,TemperatureF,Dew PointF,Humidity,Sea Level PressureIn,VisibilityMPH,Wind Direction,Wind SpeedMPH,Gust SpeedMPH,PrecipitationIn,Events,Conditions,WindDirDegrees,DateUTC
12:53 AM,-0.9,-11.0,62,30.51,10.0,WSW,5.8,-,N/A,,Scattered Clouds,250,2013-12-12 06:53:00
1:53 AM,-2.0,-11.0,66,30.49,10.0,SSW,8.1,-,N/A,,Overcast,210,2013-12-12 07:53:00
2:53 AM,-0.0,-9.9,63,30.48,10.0,SW,6.9,-,N/A,,Overcast,220,2013-12-12 08:53:00
3:53 AM,-0.9,-9.0,69,30.45,10.0,SW,6.9,-,N/A,,Overcast,220,2013-12-12 09:53:00
4:53 AM,1.0,-7.1,69,30.41,4.0,SSW,8.1,-,0.00,Snow,Light Snow,210,2013-12-12 10:53:00
5:03 AM,1.9,-7.1,66,30.30,2.0,SW,10.4,-,0.00,Snow,Light Snow,220,2013-12-12 11:03:00
5:15 AM,1.9,-6.0,69,30.29,1.8,SSW,10.4,-,0.00,Snow,Light Snow,200,2013-12-12 11:15:00
5:51 AM,1.4,-4.0,78,30.27,3.0,South,10.4,-,0.00,Snow,Light Snow,190,2013-12-12 11:51:00
5:52 AM,1.9,-4.0,76,30.38,3.0,SSW,9.2,-,0.00,Snow,Light Snow,200,2013-12-12 11:52:00
6:53 AM,3.0,-6.0,66,30.36,10.0,SW,9.2,-,0.00,,Overcast,220,2013-12-12 12:53:00
7:53 AM,3.0,-6.0,66,30.36,10.0,Variable,6.9,-,N/A,,Partly Cloudy,0,2013-12-12 13:53:00
8:27 AM,3.9,-5.1,66,30.25,10.0,SW,6.9,-,N/A,,Mostly Cloudy,220,2013-12-12 14:27:00
8:53 AM,5.0,-4.0,66,30.35,10.0,Variable,4.6,-,N/A,,Overcast,0,2013-12-12 14:53:00
9:21 AM,6.1,-4.0,63,30.25,10.0,WSW,9.2,-,N/A,,Scattered Clouds,240,2013-12-12 15:21:00
9:53 AM,8.1,-2.9,61,30.36,10.0,West,10.4,-,N/A,,Clear,260,2013-12-12 15:53:00
10:53 AM,10.9,-0.0,61,30.35,10.0,West,9.2,-,N/A,,Clear,260,2013-12-12 16:53:00
11:53 AM,12.0,1.0,61,30.32,10.0,West,10.4,-,N/A,,Clear,280,2013-12-12 17:53:00
12:53 PM,14.0,1.9,59,30.29,10.0,West,6.9,-,N/A,,Clear,270,2013-12-12 18:53:00
1:53 PM,16.0,3.9,59,30.28,10.0,WSW,9.2,-,N/A,,Clear,240,2013-12-12 19:53:00
2:53 PM,17.1,3.9,56,30.27,10.0,WSW,6.9,-,N/A,,Clear,240,2013-12-12 20:53:00
3:53 PM,16.0,5.0,62,30.27,10.0,WSW,5.8,-,N/A,,Clear,250,2013-12-12 21:53:00
4:53 PM,14.0,3.9,64,30.28,10.0,Calm,Calm,-,N/A,,Clear,0,2013-12-12 22:53:00
5:53 PM,16.0,6.1,65,30.27,10.0,SW,4.6,-,N/A,,Overcast,220,2013-12-12 23:53:00
6:53 PM,16.0,6.1,65,30.25,10.0,SSW,6.9,-,N/A,,Overcast,210,2013-12-13 00:53:00
7:53 PM,17.1,7.0,65,30.25,10.0,WSW,3.5,-,N/A,,Overcast,240,2013-12-13 01:53:00
8:53 PM,18.0,9.0,68,30.24,10.0,SW,4.6,-,N/A,,Overcast,230,2013-12-13 02:53:00
9:53 PM,19.0,9.0,65,30.23,10.0,Variable,3.5,-,N/A,,Overcast,0,2013-12-13 03:53:00
10:53 PM,18.0,9.0,68,30.21,10.0,SW,5.8,-,N/A,,Overcast,220,2013-12-13 04:53:00
11:53 PM,18.0,9.0,68,30.21,10.0,WSW,4.6,-,N/A,,Overcast,250,2013-12-13 05:53:00